Vorticity
2 -17 13 15 5 21 13 5 5 8 6 3 2 7 9 4 7 4 6 5 4 4 5 3 4 4 3 2 4 6 7 4 5 5 4 3 4 6 7 7 6 5 6 6 7 6 5 5 6
9 6 6 4 9 8 24 -2 5 12 14 7 4 6 9 4 6 6 5 5 3 5 4 3 3 3 3 3 4 4 7 4 5 5 4 2 3 3 6 6 7 5 5 3 4 6 7 5 5
6 7 -0 15 7 6 -0 38 14 13 -12 7 5 6 6 7 5 7 7 5 4 3 16 5 5 4 3 2 4 4 5 6 5 5 5 5 6 4 3 5 6 7 7 7 7 6 7 7 7
5 7 5 8 5 5 12 5 13 17 18 9 4 5 0 7 6 5 7 5 5 5 3 5 5 3 5 4 4 3 5 4 3 3 3 3 4 5 6 6 5 5 4 5 4 4 6 5 5
3 12 12 11 6 9 5 7 3 11 6 4 8 7 5 1 5 5 5 5 4 5 3 6 4 4 3 3 2 5 4 4 3 4 2 3 4 2 3 2 3 4 5 5 6 4 6 8 8
14 11 9 10 8 8 9 7 6 11 10 7 8 7 7 5 6 6 5 4 4 3 4 7 9 9 5 6 3 3 4 5 4 4 5 6 6 8 8 9 7 5 4 4 3 6 5 7 8
9 2 4 6 5 4 6 7 9 8 5 8 7 2 10 8 6 5 6 6 4 4 4 8 8 8 13 11 2 3 5 5 5 5 3 4 4 4 3 3 5 6 8 9 7 7 7 8 4
5 17 12 -3 7 6 6 6 7 8 9 4 3 9 9 9 7 7 7 7 7 5 4 2 19 -17 35 0 -1 4 4 4 5 5 4 6 5 3 4 4 3 3 4 0 10 3 1 5 7
9 -0 5 3 3 6 7 9 12 10 8 9 10 5 6 6 7 7 7 9 8 7 6 7 1 -12 11 -0 -0 8 3 5 4 4 5 4 5 5 5 6 5 4 5 5 4 -0 4 5 4
-3 2 12 7 8 7 5 5 6 8 10 12 10 9 10 9 10 8 7 5 6 5 7 10 9 10 4 47 7 -2 2 4 5 5 5 4 6 5 6 5 5 6 6 6 5 1 -2 1 2
-5 13 6 2 4 7 9 7 4 6 6 6 7 7 7 8 9 9 9 7 5 8 8 7 6 5 5 -14 37 9 21 3 2 4 4 5 4 4 5 7 7 7 7 7 6 6 -2 3 4
17 2 1 4 3 4 6 6 11 6 9 8 8 6 3 4 5 5 7 7 7 4 5 5 10 9 6 6 2 8 4 7 2 0 -0 5 3 3 4 5 4 5 6 7 8 7 6 6 5
-10 9 11 6 5 5 3 4 2 4 5 11 3 2 3 2 2 2 2 6 7 7 6 6 5 14 9 10 3 8 16 17 5 30 2 5 3 4 3 5 6 4 5 6 6 6 6 5 5
6 10 11 11 11 11 12 7 7 13 2 5 5 8 4 1 2 2 2 4 8 9 8 7 5 12 13 5 1 8 19 16 2 -2 4 4 7 5 4 3 3 5 5 7 7 8 7 7 6
3 10 6 7 7 2 12 16 11 10 18 3 2 4 4 3 1 4 5 7 10 9 8 9 4 13 14 9 4 22 4 9 9 2 1 -1 2 3 4 3 1 6 4 5 4 4 4 5 5
-5 10 8 -5 13 3 7 -13 4 8 13 19 13 4 4 4 4 8 9 12 10 8 11 8 5 9 12 15 6 -5 12 -0 9 11 -4 7 2 3 3 -0 4 7 6 4 5 5 3 5 6
7 20 -4 14 8 3 10 22 4 5 7 8 16 20 17 13 13 14 17 13 6 7 10 13 8 9 14 14 13 5 1 4 22 -5 37 4 2 1 0 3 5 8 8 6 4 3 3 6 4
-2 -1 7 4 8 2 12 5 -3 7 12 9 6 7 8 6 9 9 6 5 5 10 9 10 15 18 12 12 16 6 10 -9 4 10 10 9 -4 2 6 2 7 5 8 4 1 4 5 3 9
8 12 17 8 16 6 3 8 -6 19 -12 3 6 2 14 7 10 1 -0 6 12 7 6 15 13 13 10 12 13 26 17 -0 5 17 9 10 10 6 8 5 4 4 5 2 1 4 5 4 7
6 9 -0 11 5 12 15 15 13 37 11 7 4 22 3 7 9 12 15 14 9 3 8 18 15 12 13 14 6 7 -11 27 14 21 17 33 13 8 11 5 6 5 3 4 3 4 5 6 5
4 3 1 0 6 1 15 24 11 18 23 20 8 15 7 4 9 6 13 11 7 6 7 11 9 13 14 9 9 8 7 10 0 19 26 3 2 9 8 1 2 7 1 5 1 6 6 18 21
-12 -0 7 5 12 3 4 17 15 10 10 15 10 19 14 13 7 8 8 11 7 8 8 11 8 21 14 12 6 8 8 14 -6 24 1 4 3 3 5 -0 6 8 12 4 6 22 17 1 2
9 -15 5 10 11 6 -11 24 -1 6 34 1 9 24 -5 2 4 13 10 12 9 7 9 12 16 8 17 14 11 8 13 9 7 13 15 2 13 5 15 5 10 11 3 7 16 2 6 4 2
-10 7 3 6 4 -7 44 10 14 21 7 16 2 16 8 10 11 11 8 10 9 7 7 8 13 13 15 14 10 8 10 12 7 13 5 10 8 6 0 9 13 3 6 9 7 5 4 7 10
10 -4 -1 -2 25 6 4 17 2 1 14 29 -2 11 9 15 13 12 10 8 9 7 7 9 12 19 9 7 11 12 7 8 10 14 8 11 25 5 -1 8 6 3 7 6 4 8 12 11 14
21 4 5 6 2 4 25 -2 16 16 13 8 5 10 19 10 16 1 15 5 7 9 8 4 12 19 15 18 17 12 12 9 8 17 2 12 8 7 0 -5 12 12 5 5 12 11 10 13 9
13 15 3 1 3 4 12 22 2 9 12 11 6 10 17 8 10 13 7 7 9 12 10 4 12 22 23 -3 17 11 5 7 11 13 24 22 27 5 8 4 33 6 7 13 7 9 8 7 11
-3 7 10 8 2 6 13 10 -7 3 7 12 8 13 9 9 9 10 9 14 9 9 6 5 -2 28 33 14 19 21 4 -1 12 6 7 11 4 8 37 5 7 10 10 8 11 10 5 10 10
14 13 -3 -14 -2 -0 2 15 33 3 16 11 10 11 4 3 14 16 14 13 6 7 6 8 7 28 13 10 12 26 14 19 13 -3 27 26 16 5 1 9 11 10 9 9 3 10 10 9 10
13 -2 31 1 3 20 6 -4 -19 18 12 8 8 10 7 6 7 11 9 7 7 8 8 16 17 29 12 22 11 -6 10 20 9 30 43 -2 6 8 12 13 10 10 6 9 10 11 7 6 4
Height
5896 5896 5897 5898 5902 5901 5902 5905 5906 5908 5910 5911 5912 5914 5916 5916 5917 5918 5917 5918 5919 5920 5920 5920 5923 5924 5924 5922 5923 5923 5924 5924 5925 5925 5925 5927 5927 5928 5929 5929 5929 5930 5930 5930 5931 5931 5931 5931 5931
5900 5900 5901 5902 5903 5903 5904 5906 5907 5908 5910 5912 5913 5914 5916 5917 5918 5918 5919 5920 5920 5921 5922 5921 5923 5924 5925 5924 5925 5926 5927 5927 5927 5927 5928 5929 5930 5930 5931 5932 5933 5934 5934 5934 5934 5934 5934 5934 5934
5903 5902 5897 5904 5905 5906 5907 5907 5907 5909 5910 5912 5914 5915 5917 5918 5919 5919 5920 5922 5921 5922 5922 5923 5923 5925 5926 5925 5926 5927 5929 5930 5931 5930 5931 5932 5933 5933 5933 5935 5936 5937 5937 5937 5937 5937 5937 5937 5937
5906 5906 5907 5905 5909 5908 5908 5908 5910 5911 5912 5914 5915 5917 5918 5918 5920 5920 5921 5923 5923 5923 5924 5924 5924 5926 5924 5925 5925 5928 5929 5931 5933 5934 5934 5935 5935 5936 5936 5937 5938 5939 5939 5939 5940 5940 5940 5940 5940
5910 5910 5911 5909 5910 5912 5913 5912 5913 5914 5915 5916 5917 5918 5919 5920 5920 5920 5922 5923 5924 5924 5925 5925 5924 5923 5923 5924 5927 5930 5931 5933 5934 5936 5936 5937 5937 5937 5938 5938 5939 5940 5940 5940 5941 5941 5941 5941 5941
5913 5914 5918 5915 5912 5913 5915 5916 5917 5917 5917 5918 5918 5919 5920 5920 5921 5921 5922 5924 5924 5925 5925 5925 5924 5920 5921 5922 5926 5929 5931 5933 5936 5938 5937 5939 5939 5939 5939 5939 5939 5940 5941 5941 5942 5942 5942 5943 5943
5916 5921 5919 5918 5917 5916 5917 5917 5918 5919 5919 5920 5920 5921 5921 5921 5920 5921 5922 5924 5925 5925 5924 5924 5926 5920 5918 5919 5924 5930 5933 5934 5937 5939 5939 5940 5940 5940 5940 5940 5941 5942 5943 5943 5944 5944 5944 5945 5945
5918 5920 5921 5921 5920 5920 5919 5919 5920 5920 5920 5921 5921 5921 5922 5922 5922 5921 5921 5924 5925 5925 5925 5925 5925 5923 5909 5920 5924 5928 5931 5936 5937 5940 5941 5941 5941 5942 5942 5942 5942 5943 5945 5945 5945 5946 5946 5946 5946
5921 5923 5923 5924 5922 5920 5921 5921 5921 5922 5922 5921 5921 5922 5922 5922 5923 5922 5922 5924 5925 5925 5925 5925 5926 5927 5923 5925 5925 5927 5931 5936 5937 5939 5942 5943 5943 5943 5944 5944 5945 5946 5947 5948 5947 5948 5948 5947 5947
5924 5927 5925 5924 5922 5921 5921 5922 5922 5923 5922 5923 5921 5921 5921 5922 5923 5923 5923 5924 5924 5926 5926 5924 5925 5926 5925 5921 5923 5927 5930 5935 5936 5938 5941 5943 5944 5944 5945 5946 5946 5947 5949 5950 5949 5949 5949 5949 5948
5921 5925 5923 5922 5921 5921 5922 5922 5922 5923 5923 5922 5922 5921 5922 5922 5923 5923 5923 5923 5924 5924 5925 5925 5925 5924 5924 5924 5923 5928 5930 5934 5935 5938 5941 5943 5944 5945 5946 5947 5948 5949 5949 5950 5951 5951 5950 5950 5949
5922 5925 5923 5923 5922 5923 5924 5924 5923 5924 5924 5923 5923 5922 5921 5922 5923 5923 5923 5923 5923 5924 5923 5923 5925 5926 5926 5926 5926 5927 5929 5932 5934 5936 5938 5943 5944 5945 5947 5948 5949 5950 5951 5951 5952 5952 5952 5951 5950
5927 5925 5922 5922 5922 5922 5923 5923 5923 5922 5922 5923 5923 5923 5923 5922 5922 5922 5922 5922 5921 5923 5923 5923 5924 5924 5926 5927 5927 5927 5928 5931 5933 5933 5938 5941 5944 5946 5947 5948 5949 5950 5951 5952 5952 5952 5952 5951 5950
5925 5923 5922 5922 5920 5921 5922 5922 5922 5922 5921 5921 5922 5923 5922 5922 5922 5921 5921 5921 5920 5920 5920 5921 5921 5922 5923 5924 5926 5926 5928 5930 5933 5934 5937 5939 5942 5945 5947 5948 5950 5951 5951 5951 5951 5952 5952 5951 5950
5924 5923 5921 5921 5921 5920 5919 5917 5919 5920 5918 5918 5919 5919 5920 5919 5920 5919 5919 5919 5918 5918 5918 5919 5919 5919 5919 5922 5925 5927 5928 5930 5932 5934 5936 5938 5941 5944 5946 5948 5949 5950 5951 5951 5952 5952 5952 5951 5950
5923 5921 5922 5921 5921 5922 5918 5916 5915 5917 5916 5916 5916 5917 5917 5918 5917 5917 5916 5915 5915 5915 5916 5916 5918 5917 5918 5919 5923 5926 5928 5930 5931 5931 5935 5938 5940 5943 5945 5947 5949 5950 5950 5951 5951 5951 5951 5951 5950
5924 5919 5908 5911 5919 5922 5918 5909 5912 5917 5914 5913 5914 5915 5915 5915 5914 5913 5912 5913 5913 5914 5914 5915 5915 5916 5917 5918 5920 5923 5926 5927 5931 5930 5932 5936 5940 5943 5944 5946 5948 5949 5949 5950 5950 5950 5950 5950 5949
5921 5921 5918 5916 5906 5918 5920 5918 5912 5914 5913 5913 5913 5912 5912 5913 5913 5912 5912 5911 5911 5912 5912 5912 5913 5913 5914 5915 5917 5921 5924 5927 5929 5929 5932 5935 5939 5942 5943 5944 5947 5948 5949 5950 5950 5950 5950 5949 5948
5924 5923 5920 5918 5919 5917 5916 5915 5914 5894 5897 5913 5911 5911 5911 5911 5911 5911 5911 5911 5910 5911 5911 5910 5910 5911 5912 5914 5916 5918 5921 5924 5926 5928 5929 5933 5936 5940 5941 5943 5946 5948 5949 5949 5949 5949 5948 5946 5945
5922 5921 5922 5919 5918 5917 5915 5912 5907 5909 5910 5911 5912 5910 5910 5910 5911 5909 5909 5910 5910 5910 5909 5909 5909 5910 5911 5912 5913 5916 5919 5921 5924 5925 5927 5930 5935 5939 5940 5942 5945 5947 5948 5949 5948 5947 5946 5944 5942
5919 5917 5918 5920 5918 5915 5912 5909 5908 5907 5909 5909 5907 5907 5911 5910 5908 5908 5908 5908 5908 5908 5908 5907 5907 5908 5909 5910 5912 5914 5916 5919 5923 5926 5927 5930 5934 5937 5939 5942 5944 5945 5947 5948 5947 5946 5944 5941 5940
5918 5916 5917 5918 5916 5914 5912 5911 5908 5905 5904 5906 5906 5902 5908 5908 5906 5907 5907 5907 5907 5906 5905 5905 5905 5906 5908 5909 5910 5911 5914 5918 5922 5923 5927 5930 5934 5937 5939 5941 5943 5945 5947 5947 5946 5944 5942 5941 5939
5913 5909 5911 5917 5915 5912 5907 5909 5905 5903 5903 5904 5902 5903 5906 5906 5905 5906 5905 5906 5905 5904 5904 5903 5904 5905 5906 5908 5908 5910 5912 5916 5919 5921 5924 5929 5932 5935 5937 5939 5941 5944 5946 5945 5945 5943 5942 5940 5938
5909 5913 5914 5915 5911 5906 5898 5906 5904 5897 5907 5904 5902 5903 5903 5903 5903 5904 5903 5904 5904 5904 5903 5902 5902 5902 5902 5904 5906 5908 5910 5913 5916 5920 5923 5926 5930 5932 5935 5937 5941 5943 5944 5944 5943 5942 5941 5939 5938
5909 5914 5914 5910 5908 5888 5899 5909 5911 5909 5906 5904 5902 5902 5901 5900 5901 5902 5902 5902 5903 5903 5902 5900 5899 5899 5900 5901 5903 5905 5908 5912 5915 5918 5921 5924 5927 5930 5934 5937 5941 5943 5943 5943 5942 5941 5940 5939 5937
5909 5914 5908 5908 5912 5908 5898 5909 5907 5905 5904 5903 5903 5902 5901 5899 5899 5900 5902 5902 5902 5903 5902 5899 5897 5896 5896 5899 5900 5903 5907 5910 5913 5914 5917 5920 5925 5930 5934 5937 5940 5942 5942 5943 5942 5941 5940 5939 5937
5906 5908 5908 5906 5911 5911 5904 5902 5906 5902 5903 5903 5902 5901 5899 5897 5899 5900 5901 5901 5902 5903 5902 5898 5897 5893 5894 5896 5898 5901 5904 5907 5910 5913 5916 5919 5925 5929 5933 5936 5938 5940 5941 5942 5941 5940 5939 5939 5938
5900 5901 5906 5904 5905 5905 5902 5895 5894 5901 5900 5902 5900 5899 5898 5899 5900 5901 5901 5901 5901 5902 5902 5899 5895 5891 5892 5893 5894 5898 5902 5907 5911 5914 5917 5921 5925 5929 5933 5935 5938 5939 5940 5941 5940 5940 5939 5939 5938
5895 5897 5900 5902 5905 5906 5908 5899 5893 5896 5900 5902 5901 5901 5901 5899 5900 5901 5902 5902 5902 5903 5902 5899 5896 5893 5892 5893 5895 5897 5901 5906 5912 5916 5919 5923 5926 5930 5934 5936 5938 5938 5940 5940 5940 5939 5939 5939 5938
5891 5900 5898 5902 5906 5902 5899 5900 5894 5897 5899 5901 5900 5901 5903 5901 5900 5901 5902 5903 5903 5904 5902 5901 5898 5894 5893 5893 5896 5898 5902 5907 5914 5917 5921 5926 5929 5932 5933 5937 5939 5940 5941 5942 5940 5939 5940 5939 5938